Location: Ravensburg
(48.5621°N, 13.4088°E)
Time: 06:44:29
(UTC+02:00)

ISS - Pass Details

Date: 21 March 2017
Orbit: 401 x 408 km, 51.6° (Epoch: 22 October)

Event Time Altitude Azimuth Distance (km) Brightness Sun altitude
Exits shadow 03:18:06 16° 99° (E) 1,185 -1.0 -27.1°
Drops below altitude 10° 03:18:55 10° 101° (E) 1,511 -0.4 -27.0°
Enters shadow 04:19:40 -60° 300° (WNW) 11,459 3.5 -18.2°
